Regional Weather Roundup
Issued by NWS

Home | Current Version | Previous Version | Text Only | Print | Product List | Glossary Off
Versions: 1 2 3 4 5 6 7 8 9 10 11 12 13 14 15 16 17 18 19 20 21 22 23 24 25 26 27 28 29 30 31 32 33 34 35 36 37 38 39 40 41 42 43 44 45 46 47 48 49 50

000
ASUS43 KBIS 281920
RWRND

NORTH DAKOTA REGIONAL WEATHER ROUNDUP
NATIONAL WEATHER SERVICE BISMARCK ND
100 PM CST WED JAN 28 2015

NOTE: "FAIR" INDICATES FEW OR NO CLOUDS BELOW 12,000 FEET WITH NO
SIGNIFICANT WEATHER AND/OR OBSTRUCTIONS TO VISIBILITY.


NDZ001>003-009>011-017-282000-
NORTHWEST NORTH DAKOTA

CITY           SKY/WX    TMP DP  RH WIND       PRES   REMARKS
WILLISTON      CLOUDY    32  29  88 NW17G23   30.00R
MINOT          CLOUDY    28  26  92 NW17      29.89R FOG     WCI  16
MINOT AFB      FRZ DRZL  28  28 100 N12       29.89R FOG     WCI  18
$$

NDZ018>021-031>035-040>046-282000-
SOUTHWEST NORTH DAKOTA

CITY           SKY/WX    TMP DP  RH WIND       PRES   REMARKS
BISMARCK       CLOUDY    38  32  79 NW12      29.81R
DICKINSON      CLOUDY    41  32  70 NW29G39   29.87R
GARRISON         N/A     31  30  96 N15       29.86R
HETTINGER ARPT CLOUDY    46  31  55 NW31G38   29.86R
$$

NDZ004>008-012>016-024-026-027-054-282000-
NORTHEAST NORTH DAKOTA

CITY           SKY/WX    TMP DP  RH WIND       PRES   REMARKS
GRAND FORKS    CLOUDY    34  32  92 SW5       29.76F FOG
GRND FRKS AFB  CLOUDY    32  32 100 W3        29.77S FOG
DEVILS LAKE    CLOUDY    32  30  93 N14       29.78R
$$

NDZ022-023-025-028>030-036>039-047>053-282000-
SOUTHEAST NORTH DAKOTA

CITY           SKY/WX    TMP DP  RH WIND       PRES   REMARKS
FARGO          CLOUDY    36  31  82 S16G24    29.76F HAZE
JAMESTOWN      CLOUDY    32  31  96 N6        29.73S FOG
$$



USA.gov is the U.S. government's official web portal to all federal, state and local government web resources and services.